Timeline UpdatesTrip UpdatesNews PostsPvt PostsTravel TipsAdmin PostsConv PostsFollowed PostsChat RequestsBlog PostsPNR Posts

Disclaimer
Search
 
 
Sat Aug 30, 2014 01:39:42 ISTHomeTrainsΣChainsAtlasPNRForumGalleryNewsFAQTripsMembersLoginFeedback
No Recent News for this Train
Other Trains in the News **new
Latest...
⇐ Return Journey: Train# 59208

59207/Bhavnagar Okha Passenger

Feb 22 2014 (11:41PM)
Change Departure Station:
Change Arrival Station:
Post a Train Travel TipPost a Train Travel Tip **new
Post a Comment/Question/Picture/VideoPost a Comment/Question/Picture/Video
Pantry/Catering
✕ NO Pantry Car
✕ NO Catering
RSA - Rake Sharing
59267/59268 Bhavnagar-Palitana Passenger; RSA 09201/09202; BVC-SUNR(Triweekly) PASS.
Rake/Coach Composition
ENG.SLR.GEN.GEN.S1.S2.GEN.GEN.SLR(RMS).; By Darshan Chauhan Entry# 684153
Loco
LOCO RTM WDM 3A.
News    PNR    Forum    Time-Table    Availability    Fare Chart    Map    Arr/Dep History    Trips    Gallery    ΣChains    X/O    Timeline    
Travel Time: 7h 38m    29 halts    Distance: 256 km    Avg Speed: 33 km/hr
Type: Passenger
Zone: WR/Western
Departs @ 21:25 (Avg 3m late)
Platform# 1
SMTWTFS
Bhavnagar Terminus/BVC 
Arrives @ 05:03 +1 night (Avg 9m late)
Platform# ???
SMTWTFS
Sindhawadar/SDD 

29 halts. 36 intermediate Stations between Bhavnagar Terminus and Sindhawadar

Show ALL intermediate Stations  Show Old Time-Table

#CodeStation NameX/OArrivesAvgDepartsAvgHaltPFDay#KmSpeedElevZoneAddress
1BVC»Bhavnagar Terminus (2)»  -21:25+3110.03311mWRBhavnagar, Gujarat
2BVPBhavnagar Para  21:30+721:31+111m--12.74313mWRBhavnagar, Gujarat
3VTJVartej  21:41+1221:42+121m--19.94524mWRBhavnagar, Gujarat
4KDMRKodiyar Mandir  21:49+1321:50+131m1115.24592mWRSH 21, Gujarat
5SOJNSihor Gujarat  21:57+1421:58+141m--120.45042mWRShihor, Gujarat
6SGDSongadh (1)  22:07+1222:08+121m1127.95240mWRBhavnagar, Gujarat
7BJUDBajudX  22:15-22:16-1m--134.02937mWRState Highway 31, Gujarat
8SOASanosra  22:25+1222:26+181m1138.36636mWRState Highway 25, Gujarat
9DLJDhola Junction  22:36+1822:37+191m1149.36137mWRDhola, Gujarat
10UJUjalvav  22:47+2022:48+201m--159.55064mWRState Highway 31, Gujarat
11ALMRAlampur  22:56+2022:57+201m--166.26459mWRState Highway 31, Gujarat
12NGANingala Junction  23:04+2023:05+201m--173.75657mWRState Highway 117, Gujarat
13LTDLathidad  23:13+2023:14+211m--181.24768mWRTajpar Rd, Gujarat
14BTDBotad Junction (5)  23:28+1723:30+202m1192.26896mWRBotad, Gujarat
15KDIKundli  23:40+2323:41+221m--1103.76586mWRState Highway 38, Gujarat
16RURRanpur  23:51+2323:52+231m--1114.46561mWRRanpur, Gujarat
17CDAChuda  00:07+2000:08+211m--2130.76063mWRState Highway 38, Gujarat
18LMLimbdi (1)  00:18+2200:19+171m12140.83651mWRLimbdi, Gujarat
19WCWadhwan City  00:53+400:54+41m--2161.13667mWRSurendranagar, Gujarat
20JVNJorawarnagar Junction (1)  01:00-01:01-1m12164.62869mWRSurendra Nagar, Gujarat
21SRGTSurendranagar Gate (1)  01:07-01:08-1m12167.4871mWRSurendranagar, Gujarat
22SUNRSurendranagar Junction (4)X  01:25+1001:40+1915m12169.63672mWRSurendra Nagar, Gujarat
23DXRDigsar  02:03+2002:04+251m--2183.348100mWRState Highway 17, Gujarat
24MOLMuli Road  02:14+2402:15+341m12191.350108mWRSurendranagar, Gujarat
25RARampardaX  02:26+3302:27+381m--2200.520141mWRSurendranagar, Gujarat
26VDVagdiya  02:46+2802:47+311m--2206.952149mWRState Highway 113, Gujarat
27THANThan Junction (3)  02:59+2203:01+252m12217.357138mWRThangadh, Gujarat
28DLDaladi  03:16+3603:17+401m--2231.441115mWRDaladi, Gujarat
29WKRWankaner Junction (4)XO  03:35+2804:43+668m--2243.94087mWRWankaner, Gujarat
30AXAAmarsar  04:54+804:55+81m--2251.239113mWRRajkot, Gujarat
31SDD•Sindhawadar•  05:03+905:04+101m--2256.434105mWRSindhavadar, Gujarat
32KNKTKanakotX  05:16+905:18+152m--2263.147133mWRState Highway 113, Gujarat
33KHCKhoranaX  05:33+1005:34+131m--2274.931131mWRState Highway 113, Gujarat
34RJTRajkot Junction (5)XO  05:55+707:05+270m32285.654128mWRRajkot, Gujarat
35KHDIKhanderi  07:17+907:18+91m--2296.460111mWRRajkot, Gujarat
36PDHPadadhari  07:32+807:33+181m--2310.44671mWRPaddhari, Gujarat
37CXChanol  07:42+1807:43+191m--2317.34889mWRState Highway 25, Gujarat
38HMHadmatiya Junction  07:52+1807:53+191m--2324.46770mWRHadmatiya Junction Railway Station, Gujarat
39JALDJaliya DevaniX  08:00+1908:01+201m--2332.34250mWRRanuja Village Rd, Gujarat
40WTJJam Wanthali  08:12+1908:13+231m--2339.95952mWRRanuja Village Rd, Gujarat
41ALBAlia Bada  08:25+2308:26+261m--2351.64227mWRJamnagar, Gujarat
42HAPAHapa (3)X  08:40+2608:45+285m--2361.54316mWRJamnagar, Gujarat
43JAMJamnagar (2)X  08:57+2609:00+283m--2370.25914mWRJamnagar, Gujarat
44LKBLLakhabawalX  09:12+3309:13+331m--2382.02721mWRJamnagar, Gujarat
45PPLIPipli  09:34+2109:35+221m--2391.53930mWRJamnagar, Gujarat
46KNLSKanalus JunctionX  09:43+2509:44+251m--2396.63436mWRJamnagar, Gujarat
47MDPRModpur  10:03+2010:04+241m--2407.45647mWRKhambhalia-Lalpur, Gujarat
48SYQSinhan  10:14-10:15-1m--2416.75250mWRSH 6, Gujarat
49KMBLKhambhalia  10:24+2210:26+212m--2424.55549mWRKhambhalia, Gujarat
50VQDViramdad  10:34-10:35-1m--2431.96549mWRKhambhalia-Dwarka (SH 6), Gujarat
51BHTLBhatel  10:45+2510:46+251m--2442.64735mWRJamnagar, Gujarat
52BPKABhopalka  11:04+2011:05+201m--2456.85446mWRJamnagar, Gujarat
53BHTABhatiya  11:16+2211:18+212m--2466.86334mWRNational Highway 8E, Gujarat
54KRGAKuranga  11:29-11:30-1m--2478.46312mWRJamnagar, Gujarat
55OKDOkha Madhi  11:38+1811:39+181m--2486.71085mWRNH 8E, Gujarat
56GRJAGorinjaX  11:49+1711:50+171m--2504.7235mWRKhambhalia-Dwarka (SH 6), Gujarat
57DWKDwarka (2)  12:00+1612:01+171m--2508.52514mWRDwarka, Gujarat
58VVAVarvala  12:13-12:14-1m--2513.63114mWRJamnagar, Gujarat
59BMRNBhimranaX  12:36+112:38+122m--2524.8136mWRBhimrana, Gujarat
60MTHPMithapur  12:52-12:53-1m--2527.7213mWRJamnagar, Gujarat
61OKHAOkha (3)  13:20-3---2537.2-5mWROkha, Gujarat
Scroll to Top
Scroll to Bottom